Princeton, British Columbia

3:50 PM PDT on July 25, 2017 (GMT -0700)
Princeton Airport | | Change Station

Elev 2297 ft 49.47 °N, 120.52 °W | Updated 50 minutes ago

Partly Cloudy
Partly Cloudy
86 °F
Feels Like 86 °F
N
6
Wind Variable Wind from SE

Today
High -- | Low -- °F
--% Chance of Precip.
Yesterday
High -- | Low -- °F
Precip. -- in
Pressure 29.96 in
Visibility 25.0 miles
Clouds Few 6000 ft
Few 23000 ft
Dew Point 34 °F
Humidity 15%
Rainfall 0.00 in
Snow Depth Not available.
5:24 AM 8:51 PM
Waxing Crescent, 9% visible
METAR CYDC 252200Z 13005KT 100V250 25SM FEW060 FEW230 30/01 A2999 RMK CU1CI1 CU TR CI TR FU SLP144 DENSITY ALT 4500FT
Pressure 29.96 in
Visibility 25.0 miles
Clouds Few 6000 ft
Few 23000 ft
Dew Point 34 °F
Humidity 15%
Rainfall 0.00 in
Snow Depth Not available.
5:24 AM 8:51 PM
Waxing Crescent, 9% visible
METAR CYDC 252200Z 13005KT 100V250 25SM FEW060 FEW230 30/01 A2999 RMK CU1CI1 CU TR CI TR FU SLP144 DENSITY ALT 4500FT

Get Severe Weather Alerts

Thanks for signing up!

Be on the lookout for a verification email in your inbox.

You'll start receiving the daily forecast at 6 AM.

×

10-Day Weather Forecast

Almanac

Astronomy

Jul. 25, 2017 Rise Set
Actual Time
Civil Twilight
Nautical Twilight
Astronomical Twilight
Moon
Length of Visible Light
Length of Day
Tomorrow will be .
, % of the Moon is Illuminated

Today's Extremes

Country Highs Country Lows

Community

WunderPhotos

Category 6

Welcome to Category 6. This is the collective home for Weather Underground's featured writeups by Dr. Jeff Masters (right), Bob Henson (left), Chris Burt, and other regular contributors.

Nearby

Air Quality

  Air Quality AQ Index Pollutant
Not available.

Snow Depth

Station Depth Elevation

Earthquake Activity

City Distance Mag. Time & Date
Minimum magnitude displayed is 2.5.

Coastal Water Temperatures

Place Temperature

Stations

Nearby Weather Stations

Station Location Temp. Windchill Dew Point Humidity Wind Precip. Elev Updated Type
                   

Watches & Warnings

There are currently no watches in effect.